map of LFPV home
LFPV - Airport
Location
City:  Vélizy-Villacoublay, Île-de-France, France
Name:Vélizy-Villacoublay AB
ICAO:LFPV

Details
Type:Airport (Aerodrome, Airfield)
Use:Military
Latitude:48°46'27"N (48.774172)
Longitude:2°11'30"E (2.191694)
Elevation:584 ft (178 m)
Variation:0.68°E (WMM2015 magnetic declination)
0.13° annual change
Runways:1
Longest:5948 × 148 ft (1813 × 45 m)

Time
Time Zone:UTC+1 (DST+2)
Local Time:

Weather
METAR:LFPV 150400Z AUTO 12003KT CAVOK M02/M06 Q1022 NOSIG
TAF:LFPV 150200Z 1503/1603 09006KT 9999 BKN028
BECMG 1511/1513 14012KT PROB30
TEMPO 1516/1518 FZRA
BECMG 1515/1517 4000 RA BKN008

Related Locations
Nearby:
Farthest:CHT: 12081 mi / 19443 km
Waitangi [Tuuta], CIT, NZ

Find:

   beyond  
but within

Other Information
Maps:
NOTAMs:
Links:
Sources:

  
  • flag of France
  • flag of Île-de-France
  

Sectional Chart

Flight Planning
at skyvector.com

Satellite Image

Google Maps Satellite view

 

Copyright © 2004-2018 Karl L. Swartz. All rights reserved.
The Great Circle Mapper name and logo are trademarks of the Great Circle Mapper.
All other trademarks mentioned herein belong to their respective owners.
Please see credits for attibutions and further copyright information.

  Follow gcmap on Facebook Follow gcmap on Twitter Follow gcmap on Google+ GCmap on LinkedIn

hCard Microformat

Geo Microformat